Wind_Speed
8 8 8 8 9 9 9 9 8 7 7 9 9 9 8 6 8 10 11 11 10 9 7 7 7 7 14 3 8 4 7 4 13 24 28 20 27 21 14 12 6 1 5 16 21
10 9 9 8 7 7 8 9 9 7 6 7 8 9 9 9 8 10 9 12 13 10 8 8 13 11 2 10 6 7 5 15 21 20 21 16 15 14 16 13 12 11 11 15 19
11 11 10 10 8 8 7 8 7 7 7 5 5 8 9 9 8 8 10 12 14 13 11 8 16 7 12 15 12 10 11 1 2 21 16 9 14 19 17 18 8 6 12 17 19
10 10 9 10 10 9 8 8 8 6 4 4 3 7 9 9 7 8 12 12 14 14 13 11 14 10 6 11 22 9 3 6 19 16 8 10 18 16 15 15 6 7 11 16 14
8 8 9 9 8 9 9 8 7 7 6 3 3 6 10 12 13 3 11 13 15 15 13 10 17 10 7 4 6 12 3 10 6 13 17 19 24 24 19 14 7 7 12 16 12
10 9 8 8 8 8 8 8 6 6 5 4 4 6 11 15 13 7 9 13 15 17 15 11 12 3 8 9 6 11 9 7 5 6 13 18 18 18 16 11 6 10 16 17 12
13 9 8 7 8 9 8 7 8 6 5 4 5 7 11 15 10 11 7 14 15 18 18 7 5 9 4 1 9 8 5 5 3 13 19 24 18 16 18 10 11 12 18 18 13
13 13 9 8 8 7 7 6 6 5 5 4 5 8 14 13 10 11 13 15 17 20 17 11 18 17 9 8 8 3 18 6 6 13 2 12 17 23 14 4 12 15 18 18 17
13 12 12 11 8 7 7 6 5 5 4 3 3 7 9 6 8 10 13 15 19 20 22 20 18 16 11 7 10 14 12 12 13 15 12 10 18 17 24 19 15 14 20 17 20
14 13 12 12 10 7 4 3 4 5 2 2 1 3 6 5 7 11 14 15 13 17 16 16 15 16 14 8 11 17 11 12 10 14 19 15 12 14 17 16 22 14 20 17 20
13 12 12 11 9 7 4 0 2 3 6 3 10 8 11 2 6 13 15 13 8 9 13 10 11 19 23 10 13 11 13 8 12 4 9 8 8 13 34 24 24 26 17 19 19
15 12 9 9 8 6 3 2 2 7 6 10 8 4 3 6 4 9 16 15 12 11 10 11 15 14 13 12 14 8 10 14 9 16 7 9 8 10 20 25 29 31 25 15 19
16 14 11 8 6 6 4 4 1 6 6 7 5 12 15 9 4 11 14 15 10 10 12 14 11 11 16 17 17 17 13 4 15 10 11 8 9 13 14 19 21 35 30 18 17
14 14 11 8 4 3 0 3 2 1 5 4 9 4 11 5 12 9 9 16 14 11 11 16 16 18 13 20 18 18 16 9 13 13 14 15 9 13 19 21 25 28 30 28 22
15 13 11 9 4 3 4 2 1 4 3 8 6 3 9 11 2 17 11 15 12 9 13 16 15 16 15 21 13 17 12 9 15 22 10 11 6 10 16 30 23 27 34 30 28
15 12 12 8 4 4 1 4 8 2 5 10 10 7 12 13 8 12 13 12 8 13 13 19 12 16 12 11 18 13 13 15 13 16 13 19 23 15 22 28 18 20 34 29 36
15 12 10 9 5 5 8 11 2 5 4 13 10 6 14 13 15 15 10 14 14 12 13 16 18 10 15 18 12 17 17 7 3 4 6 16 20 24 14 18 20 27 25 22 37
15 12 9 6 4 5 12 9 6 6 11 4 8 8 14 15 15 15 10 15 15 19 17 17 16 17 11 23 18 20 18 11 5 4 14 20 25 22 23 15 20 18 28 33 31
15 10 10 6 5 9 15 8 7 7 10 4 5 12 13 17 13 18 12 14 14 13 21 10 14 24 23 22 21 13 23 21 21 25 12 16 24 19 17 21 21 17 18 29 21
12 10 8 5 2 9 15 17 14 6 12 4 6 10 15 17 18 14 14 15 17 19 17 6 15 18 23 18 22 22 13 17 15 2 3 16 20 22 20 24 18 15 9 12 11
13 5 5 6 11 9 17 18 11 11 12 13 11 13 15 19 24 15 13 11 11 13 17 12 5 3 17 13 12 18 20 14 13 18 5 2 8 7 23 22 21 16 14 10 20
9 4 8 13 12 9 15 12 9 8 13 14 19 19 17 20 19 18 18 15 14 13 15 6 7 13 10 15 15 18 15 16 14 11 24 25 8 12 22 33 38 29 28 21 14
11 7 12 15 14 13 12 15 18 18 12 15 16 14 15 14 20 17 22 13 17 17 17 19 6 9 6 8 17 15 18 17 23 23 26 8 8 15 21 25 28 25 22 18 15
11 4 3 16 15 13 16 21 17 9 20 14 14 16 19 14 11 13 12 13 14 14 18 19 18 4 7 13 14 18 21 19 15 29 26 19 14 19 20 6 15 15 16 15 14
14 10 9 11 19 18 18 15 21 20 12 19 18 17 15 19 14 19 10 12 15 14 11 17 16 13 13 14 13 10 15 21 15 12 6 3 8 3 23 16 1 11 10 8 7
16 16 23 27 25 21 20 15 16 17 19 17 23 19 14 15 22 14 19 15 16 17 18 15 15 10 14 12 9 15 12 13 18 13 4 2 9 6 8 18 19 15 6 5 4
21 23 26 23 22 18 18 17 17 20 24 18 18 23 20 21 16 15 11 4 19 16 19 18 18 11 11 13 12 14 8 6 1 1 6 3 4 4 7 7 12 6 12 14 11
Wind_Direction
341 338 332 325 320 315 311 309 304 293 274 261 251 237 224 231 217 221 210 189 182 176 165 135 141 148 136 186 227 270 313 130 147 121 116 123 121 116 104 124 127 120 119 132 142
334 330 327 326 322 317 315 314 315 307 293 270 249 235 219 214 217 216 207 195 186 179 173 153 144 86 325 282 311 222 125 91 138 133 143 141 160 139 133 153 156 158 140 142 138
337 328 324 321 323 319 316 312 310 313 312 296 255 236 220 210 216 205 206 197 191 183 187 184 121 115 281 17 159 150 109 28 160 142 153 154 144 148 156 164 184 155 158 149 136
334 330 322 315 320 321 317 317 314 307 302 303 265 226 212 205 205 199 195 195 191 190 189 181 141 106 283 356 118 181 131 112 128 126 138 136 143 161 162 173 188 161 155 144 125
335 326 323 321 318 313 313 308 312 313 310 278 231 216 206 201 208 129 183 188 188 192 195 196 117 79 306 46 70 150 244 138 113 135 130 141 146 150 151 172 204 152 143 131 127
344 340 328 330 314 310 308 309 310 304 302 278 230 202 204 206 209 193 176 187 184 188 194 193 109 0 299 300 117 159 114 59 89 157 150 156 154 161 156 187 174 150 132 137 147
2 353 329 329 320 317 319 312 312 309 295 271 231 205 208 227 229 212 193 187 185 183 194 167 210 231 191 157 224 150 162 275 20 147 129 143 125 140 156 173 148 149 134 150 170
0 2 348 336 314 326 319 304 298 299 292 268 225 200 213 225 235 203 198 187 189 184 173 197 202 196 170 157 197 131 202 321 242 190 239 189 132 139 158 189 151 157 152 176 178
356 353 349 347 340 330 324 330 324 319 311 289 242 212 228 215 223 196 189 187 193 194 196 201 208 195 175 148 211 206 201 220 180 226 240 160 178 157 157 163 168 153 174 191 190
353 349 345 347 348 348 346 351 355 357 4 121 121 190 283 277 221 196 189 181 202 200 207 211 223 204 185 197 244 188 181 224 230 219 219 219 202 196 171 169 175 184 185 200 198
340 341 339 341 345 348 355 221 292 11 164 176 128 68 344 235 198 190 166 152 208 199 206 201 217 211 216 216 228 273 230 259 177 169 176 183 219 292 226 189 185 189 200 198 203
343 341 333 328 328 331 338 299 196 255 255 221 193 187 177 232 187 179 176 196 188 201 209 188 239 207 217 227 253 231 181 223 193 196 286 218 265 151 189 209 195 191 207 210 200
342 346 345 328 323 326 322 340 58 263 284 259 214 225 175 232 220 199 195 163 201 203 209 221 227 212 221 235 249 238 213 212 223 268 212 239 203 165 222 212 199 190 194 223 210
337 340 344 338 333 303 262 18 268 287 301 232 242 255 182 245 216 219 227 165 185 218 222 235 211 232 226 241 239 258 237 167 224 186 190 217 265 245 206 207 202 193 193 215 216
335 335 336 335 302 280 319 175 50 101 322 175 189 204 194 179 113 186 245 184 203 211 219 230 243 237 252 229 235 222 228 242 217 216 237 204 206 228 196 203 227 208 188 208 218
331 325 329 323 282 237 165 175 122 33 251 163 190 198 192 189 154 193 203 193 233 240 234 238 226 241 252 232 219 209 246 261 212 210 217 229 225 238 210 215 225 218 187 207 207
322 318 317 310 302 266 169 141 55 241 150 177 200 193 196 199 195 182 202 216 221 233 244 231 241 245 219 218 216 224 255 257 288 232 221 236 251 241 233 226 215 222 199 202 209
317 311 303 290 266 203 173 137 244 225 245 194 197 198 201 200 214 202 214 220 236 221 257 223 247 223 190 205 217 230 235 231 191 215 248 245 257 266 243 214 202 207 215 221 215
318 307 304 272 234 201 181 197 221 342 333 270 190 209 207 217 216 198 222 223 222 237 252 301 263 233 228 219 218 242 217 232 274 278 305 288 255 254 234 201 186 199 214 233 226
325 316 297 216 177 210 203 222 232 268 327 295 239 238 214 225 206 199 208 230 237 225 231 249 315 221 198 197 228 231 218 232 244 287 285 284 305 257 222 184 195 203 199 181 198
330 333 296 318 314 265 234 240 251 280 259 256 253 260 251 245 203 199 216 230 205 202 205 222 289 150 173 188 226 223 239 245 248 244 194 269 2 50 163 175 186 178 172 195 181
329 96 247 281 289 285 263 263 238 277 282 280 237 263 262 249 225 216 225 243 200 196 208 200 286 307 229 219 235 226 235 231 242 255 237 248 66 88 131 131 138 133 126 135 168
304 285 208 262 261 264 283 274 274 278 261 278 247 247 240 267 239 228 217 205 198 195 218 221 249 282 264 153 208 232 241 242 241 252 272 288 158 180 155 166 175 162 156 156 161
308 279 255 241 283 299 272 265 266 272 264 258 244 255 253 265 236 195 183 204 200 211 233 238 227 266 308 297 304 259 228 219 245 240 257 283 204 206 173 66 156 178 196 199 198
288 246 261 227 234 249 254 268 270 274 275 248 246 245 263 240 240 217 184 193 199 202 199 206 236 254 262 288 305 318 222 235 253 261 355 33 71 68 217 286 50 209 220 249 260
265 253 239 238 241 251 249 260 278 270 259 263 237 235 251 236 240 243 240 208 225 218 215 223 237 242 251 261 292 316 255 243 236 247 323 207 93 66 150 213 252 236 276 263 247
254 253 259 262 264 260 261 266 268 261 259 253 229 248 241 252 254 226 202 269 241 235 229 216 228 235 255 268 289 290 263 286 133 277 31 90 15 140 164 200 227 252 242 244 243
Height
3147 3146 3145 3144 3143 3142 3141 3141 3140 3140 3140 3140 3141 3143 3145 3146 3148 3149 3151 3154 3155 3157 3159 3161 3163 3165 3167 3166 3161 3166 3168 3164 3164 3165 3171 3175 3175 3176 3176 3174 3175 3177 3177 3177 3179
3146 3144 3143 3142 3142 3141 3140 3140 3140 3139 3139 3139 3140 3141 3143 3144 3146 3148 3152 3152 3154 3156 3159 3161 3162 3167 3168 3166 3164 3163 3169 3166 3168 3169 3171 3173 3176 3177 3180 3179 3179 3177 3179 3179 3180
3145 3143 3142 3141 3140 3140 3139 3138 3138 3138 3138 3138 3138 3139 3141 3142 3145 3148 3149 3152 3153 3156 3158 3162 3161 3167 3167 3168 3163 3164 3169 3172 3171 3171 3171 3173 3174 3177 3176 3180 3179 3178 3179 3180 3181
3143 3142 3141 3140 3139 3138 3138 3137 3136 3136 3136 3137 3137 3138 3140 3142 3145 3145 3147 3150 3153 3156 3158 3161 3164 3167 3169 3171 3167 3169 3168 3168 3170 3170 3172 3171 3173 3176 3177 3179 3181 3181 3181 3181 3182
3142 3141 3139 3138 3138 3137 3136 3135 3135 3135 3135 3135 3135 3136 3138 3140 3142 3144 3146 3149 3153 3155 3158 3162 3164 3169 3172 3171 3170 3169 3169 3171 3172 3172 3175 3176 3176 3176 3179 3181 3183 3182 3182 3183 3185
3141 3140 3139 3138 3136 3135 3135 3134 3134 3133 3133 3134 3134 3135 3137 3139 3141 3144 3146 3149 3151 3155 3158 3162 3163 3168 3172 3172 3174 3174 3170 3169 3175 3172 3172 3176 3178 3177 3181 3182 3184 3184 3184 3187 3189
3141 3139 3137 3136 3135 3134 3133 3133 3133 3132 3132 3132 3133 3133 3135 3139 3140 3143 3146 3148 3151 3154 3156 3160 3162 3164 3169 3170 3171 3171 3172 3172 3172 3171 3174 3177 3181 3179 3181 3182 3183 3187 3188 3191 3193
3141 3139 3137 3135 3133 3133 3132 3131 3131 3131 3130 3130 3131 3132 3133 3136 3139 3142 3144 3147 3150 3152 3154 3158 3159 3161 3165 3169 3170 3171 3172 3169 3171 3174 3179 3176 3182 3187 3185 3182 3182 3188 3190 3193 3194
3140 3138 3136 3134 3133 3132 3131 3131 3130 3130 3130 3130 3131 3132 3133 3135 3137 3139 3143 3146 3149 3151 3153 3156 3158 3162 3165 3164 3169 3170 3169 3171 3173 3172 3176 3178 3179 3184 3186 3186 3188 3186 3192 3193 3194
3140 3137 3135 3133 3132 3131 3131 3130 3130 3130 3130 3130 3131 3135 3134 3134 3135 3137 3140 3143 3147 3150 3154 3156 3159 3162 3163 3163 3164 3167 3169 3170 3172 3174 3174 3179 3183 3183 3183 3186 3189 3191 3191 3194 3194
3140 3138 3135 3133 3131 3130 3130 3130 3132 3131 3130 3131 3132 3133 3131 3131 3134 3136 3139 3143 3147 3149 3151 3155 3157 3158 3161 3163 3164 3168 3170 3170 3171 3172 3174 3175 3176 3179 3177 3183 3186 3190 3189 3190 3191
3138 3136 3134 3133 3131 3130 3129 3128 3128 3129 3129 3129 3130 3132 3136 3134 3134 3135 3139 3143 3145 3148 3150 3154 3154 3157 3161 3163 3164 3167 3166 3169 3172 3167 3174 3173 3174 3174 3175 3177 3179 3184 3189 3189 3189
3136 3134 3132 3131 3130 3130 3129 3128 3128 3128 3128 3127 3128 3130 3133 3134 3135 3136 3138 3140 3145 3147 3149 3151 3153 3157 3159 3161 3163 3165 3163 3166 3170 3168 3170 3172 3171 3174 3178 3176 3177 3179 3183 3186 3185
3135 3133 3131 3130 3131 3128 3127 3127 3127 3127 3128 3128 3128 3128 3130 3133 3134 3137 3138 3141 3143 3146 3148 3150 3150 3155 3157 3158 3161 3161 3162 3162 3166 3168 3168 3170 3170 3169 3170 3171 3174 3180 3177 3182 3183
3133 3131 3129 3128 3128 3128 3128 3126 3128 3129 3129 3128 3128 3130 3131 3133 3134 3136 3138 3140 3142 3145 3148 3148 3148 3150 3153 3155 3157 3159 3161 3162 3163 3165 3168 3168 3169 3164 3166 3170 3169 3172 3173 3178 3179
3131 3129 3128 3127 3126 3126 3126 3128 3129 3132 3127 3128 3127 3129 3131 3131 3135 3136 3138 3141 3143 3143 3144 3144 3145 3148 3149 3151 3152 3156 3158 3161 3161 3162 3165 3163 3166 3162 3164 3164 3163 3166 3167 3175 3175
3128 3127 3126 3125 3126 3126 3125 3127 3131 3129 3127 3126 3126 3128 3130 3132 3134 3135 3138 3139 3141 3143 3142 3142 3141 3144 3145 3148 3151 3155 3156 3157 3159 3160 3158 3158 3159 3158 3159 3160 3164 3162 3167 3170 3175
3126 3125 3124 3123 3124 3125 3125 3128 3129 3125 3126 3124 3124 3127 3129 3131 3132 3133 3136 3137 3139 3140 3142 3141 3141 3140 3142 3146 3150 3152 3154 3155 3159 3159 3156 3152 3151 3150 3152 3155 3160 3165 3167 3164 3168
3124 3122 3122 3121 3122 3123 3125 3126 3123 3124 3123 3123 3124 3126 3128 3129 3130 3131 3133 3134 3135 3137 3140 3139 3137 3137 3138 3143 3147 3148 3149 3153 3153 3152 3152 3150 3148 3147 3150 3153 3157 3161 3162 3163 3164
3122 3120 3119 3120 3121 3122 3123 3121 3120 3122 3124 3123 3123 3124 3125 3126 3128 3128 3131 3131 3133 3134 3133 3137 3133 3127 3135 3141 3142 3144 3150 3152 3151 3154 3155 3146 3147 3141 3143 3148 3152 3157 3159 3159 3160
3120 3118 3116 3118 3120 3121 3119 3118 3118 3119 3122 3123 3122 3122 3123 3123 3123 3125 3129 3130 3129 3129 3130 3134 3137 3135 3135 3137 3139 3143 3144 3147 3149 3149 3151 3151 3150 3142 3141 3147 3151 3156 3157 3156 3157
3118 3118 3118 3118 3119 3117 3115 3116 3117 3117 3120 3118 3119 3119 3120 3120 3121 3121 3125 3125 3125 3128 3130 3131 3134 3133 3133 3134 3137 3138 3141 3144 3144 3147 3146 3146 3154 3148 3146 3144 3148 3152 3153 3154 3157
3116 3115 3115 3116 3115 3114 3113 3114 3116 3115 3115 3115 3115 3116 3117 3116 3118 3119 3119 3120 3123 3126 3128 3132 3135 3132 3131 3133 3136 3135 3137 3140 3141 3143 3142 3145 3149 3147 3143 3144 3146 3149 3150 3152 3158
3114 3113 3115 3113 3112 3111 3110 3109 3108 3110 3111 3113 3113 3113 3113 3113 3114 3114 3115 3119 3120 3123 3126 3129 3132 3133 3135 3134 3136 3134 3134 3136 3138 3139 3140 3141 3141 3144 3145 3149 3147 3149 3151 3151 3153
3109 3109 3108 3107 3107 3106 3106 3107 3105 3105 3107 3108 3108 3109 3110 3111 3112 3112 3112 3116 3118 3121 3124 3126 3127 3129 3129 3130 3129 3129 3132 3133 3134 3137 3140 3143 3141 3143 3146 3142 3143 3149 3152 3154 3153
3103 3102 3101 3099 3101 3100 3100 3101 3102 3101 3103 3104 3104 3106 3106 3107 3108 3110 3111 3112 3114 3119 3121 3123 3124 3127 3128 3128 3128 3128 3130 3131 3133 3136 3140 3139 3143 3148 3150 3153 3151 3150 3150 3155 3153
3094 3095 3092 3095 3094 3096 3096 3097 3097 3098 3095 3098 3100 3102 3103 3102 3104 3105 3106 3105 3109 3113 3117 3121 3122 3124 3125 3127 3128 3127 3128 3131 3133 3134 3137 3138 3140 3142 3143 3147 3147 3147 3150 3153 3153